Location: Powder Track
(41.8531°N, 72.3584°W)
Time: 18:16:20
(UTC+00:00)

Vanguard 1 Rocket - Pass Details

Date: 09 August 2021
Orbit: 650 x 4226 km, 34.3° (Epoch: 20 September)

Event Time Altitude Azimuth Distance (km) Brightness Sun altitude
Rises 18:53:27 0° 281° (W) 6,805 12.2 53.4°
Reaches altitude 10° 18:59:40 10° 271° (W) 5,105 11.8 52.5°
Maximum altitude 19:09:22 25° 224° (SW) 2,897 11.3 51.0°
Drops below altitude 10° 19:15:31 10° 172° (S) 3,105 10.5 50.0°
Sets 19:18:15 0° 158° (SSE) 3,731 10.6 49.6°
